[[{"header":{"parameterUnit":"m.s-1","parameterCategory":1,"la1":30.2991,"la2":30.254,"lo1":-89.0895,"lo2":-89.0444,"dy":0.0017,"dx":0.0017,"nx":28,"ny":28,"refTime":"2025-07-06T09:00:00:Z","depth":0,"parameterNumber":2,"parameterNumberName":"U-component_of_WINDS"},"data":[0,0,0,0,0,0,0,0,0,0,0,0,0,0,0,0,0,0,0,0,0,0,0,0,0,0,0,0,0,0,0,0,0,0,0,0,0,0,0,0,0,0,0,0,0,0,0,0,0,0,0,0,0,0,0,0,0,0,3.0313,3.0315,0,3.0492,3.0494,3.0496,3.0497,3.0495,3.0493,3.049,3.0673,3.068,3.0687,0,0,0,0,0,0,0,0,0,0,0,0,0,2.9971,2.9977,3.0313,3.0315,3.0317,3.0491,3.0494,3.0496,3.0497,3.0495,3.0492,3.0489,3.0671,3.0679,3.0687,0,0,0,0,0,0,0,0,0,0,0,0,0,3.0132,2.9979,3.0313,3.0339,3.0343,3.0491,3.0494,3.0497,3.0498,3.0495,3.0491,3.0488,3.0668,3.0678,3.0688,3.0822,0,0,3.072,3.0725,0,0,0,0,0,0,0,0,3.0123,3.0144,3.0333,3.0337,3.0342,3.0469,3.044,3.0606,3.0499,3.0439,3.049,3.0486,3.0608,3.0623,3.0664,3.083,3.0838,3.0721,3.0728,3.0732,3.0735,0,0,0,0,0,0,0,3.0111,3.0136,3.0384,3.0336,3.0341,3.0341,3.036,3.0472,3.054,3.0444,3.0445,3.0466,3.061,3.0654,3.0668,3.0841,3.0721,3.073,3.0737,3.0741,3.1124,3.1127,0,0,0,0,0,0,3.0095,3.0127,3.0378,3.0389,3.0222,3.035,3.0372,3.0432,3.0539,3.0552,3.0469,3.0465,3.0638,3.0656,3.0675,3.0837,3.0732,3.0742,3.0748,3.112,3.1124,3.1129,0,0,0,0,0,0,3.0088,3.0117,3.0371,3.0258,3.0291,3.036,3.0427,3.0437,3.0481,3.0558,3.057,3.0501,3.0636,3.066,3.0785,3.0843,3.0747,3.0756,3.1115,3.1121,3.1127,3.1162,0,0,0,0,0,0,3.0078,3.0115,3.0167,3.026,3.0297,3.0479,3.0431,3.0443,3.0499,3.0497,3.0592,3.0604,3.0635,3.0769,3.0795,3.0856,3.0764,3.111,3.1118,3.1125,3.1156,3.1168,3.1179,0,0,0,0,0,3.0066,3.017,3.0169,3.02,3.0363,3.0482,3.0503,3.0536,3.0504,3.0556,3.0605,3.0601,3.0832,3.0782,3.0811,3.0876,3.1107,3.1116,3.1124,3.1151,3.1166,3.1179,0,0,0,0,0,0,3.0082,3.0183,3.0183,3.032,3.0393,3.0482,3.0549,3.0552,3.0635,3.0629,3.0666,3.0688,3.0812,3.0856,3.0798,3.1009,3.0966,3.0981,3.0976,3.0991,3.1002,3.0988,3.0773,0,0,0,0,0,3.0102,3.019,3.0273,3.0386,3.0422,3.0479,3.0533,3.0552,3.0628,3.0659,3.0717,3.0791,3.088,3.0938,3.1024,3.1163,3.1182,3.1221,3.1233,3.1242,3.1254,3.1329,3.1347,3.1157,3.1157,3.1157,0,0,3.0143,3.0209,3.0263,3.0391,3.0449,3.0539,3.0505,3.0602,3.0669,3.0673,3.0795,3.084,3.0925,3.1056,3.1117,3.1097,3.1311,3.1253,3.1259,3.1267,3.134,3.1357,3.1373,3.1163,3.1162,3.1161,0,0,3.0264,3.0324,3.0424,3.0482,3.0571,3.0608,3.0632,3.0721,3.0751,3.0873,3.0877,3.0957,3.1111,3.1171,3.1221,3.1363,3.1362,3.1391,3.145,3.1523,3.1538,3.1551,3.1601,3.1618,3.1403,3.1403,3.1403,0,3.0304,3.0441,3.0475,3.0572,3.0628,3.0635,3.0736,3.0792,3.0904,3.0942,3.0918,3.1109,3.1167,3.1312,3.1347,3.1388,3.1415,3.138,3.1533,3.1547,3.156,3.1607,3.1626,3.1406,3.1405,3.1405,3.1405,0,3.0485,3.058,3.065,3.0757,3.0821,3.092,3.0968,3.1028,3.1042,3.1081,3.1204,3.1274,3.1374,3.141,3.1424,3.1557,3.1541,3.1525,3.1481,3.158,3.1625,3.1644,3.141,3.1409,3.1408,3.1407,0,0,3.0622,3.0746,3.0771,3.082,3.0917,3.0991,3.1089,3.1187,3.1237,3.1314,3.1397,3.1526,3.151,3.1568,3.1589,3.1653,3.1759,3.1628,3.1631,3.1649,3.1908,3.1919,3.1939,3.1759,3.1763,3.1766,3.19,0,3.0753,3.0928,3.0961,3.1113,3.12,3.1208,3.1293,3.1362,3.1401,3.148,3.1523,3.1613,3.1587,3.1621,3.1685,3.1733,3.1811,3.1724,3.1836,3.1839,3.1813,3.1963,3.1976,3.2099,3.1918,3.1921,3.1923,0,3.0929,3.101,3.1171,3.1255,3.1293,3.1369,3.146,3.1536,3.1614,3.1637,3.1701,3.1714,3.1816,3.1768,3.1907,3.1847,3.1895,3.1925,3.1931,3.1942,3.1887,3.1977,3.214,3.2158,3.1952,3.195,3.1948,0,3.1011,3.116,3.1275,3.1316,3.1418,3.1471,3.1516,3.1591,3.1647,3.1726,3.1763,3.1853,3.1903,3.1972,3.2009,3.1971,3.2146,3.2101,3.2168,3.2167,3.2204,3.2201,3.2375,3.2236,3.2236,3.2235,3.2235,0,3.1153,3.1251,3.1313,3.1384,3.1493,3.1529,3.1636,3.168,3.1746,3.1825,3.1837,3.1911,3.1956,3.2036,3.2066,3.2176,3.2199,3.222,3.2226,3.2218,3.2215,3.225,3.2242,3.224,3.2239,3.2238,3.2237,0,3.1263,3.1309,3.1435,3.1521,3.1544,3.1621,3.1694,3.1763,3.1801,3.1901,3.1926,3.1986,3.2081,3.2125,3.2242,3.2262,3.2387,3.2388,3.2361,3.2363,3.2426,3.2419,3.2628,3.2656,3.2499,3.2501,3.2502,0,3.1351,3.1426,3.152,3.1573,3.1619,3.1706,3.1763,3.1801,3.1859,3.1953,3.201,3.2104,3.2182,3.2333,3.2387,3.2476,3.2479,3.2546,3.2492,3.2481,3.2478,3.2473,3.248,3.2555,3.2556,3.2558,3.2559,0,3.15,3.1519,3.1601,3.1691,3.1758,3.1831,3.1902,3.1945,3.1994,3.2059,3.2156,3.2216,3.2335,3.2428,3.2521,3.2567,3.2571,3.2575,3.2595,3.2587,3.2567,3.2578,3.2386,3.257,3.2569,3.2568,3.2568,3.2567,3.1601,3.1668,3.1744,3.1834,3.1891,3.1957,3.2025,3.2072,3.2153,3.2253,3.227,3.2373,3.2447,3.2572,3.262,3.27,3.2685,3.2714,3.2721,3.2727,3.273,3.2555,3.2718,3.2717,3.2717,3.2717,3.2717,0,3.1751,3.1799,3.1882,3.1981,3.2052,3.2049,3.2127,3.2187,3.2276,3.2345,3.2421,3.2532,3.2622,3.2683,3.2774,3.2827,3.2831,3.2849,3.2845,3.2855,3.274,3.2713,3.2844,3.2844,3.2844,3.2844,3.2844,3.2844,3.1836,3.1949,3.1976,3.2116,3.2164,3.2265,3.2309,3.2369,3.2424,3.2547,3.2622,3.2661,3.2726,3.2822,3.2905,3.292,3.2953,3.2972,3.2987,3.2877,3.2864,3.2851,3.2826,3.2979,3.2979,3.3096,3.3097,3.3098]},{"header":{"parameterUnit":"m.s-1","parameterCategory":1,"la1":30.2991,"la2":30.254,"lo1":-89.0895,"lo2":-89.0444,"dy":0.0017,"dx":0.0017,"nx":28,"ny":28,"refTime":"2025-07-06T09:00:00:Z","depth":0,"parameterNumber":3,"parameterNumberName":"V-component_of_WINDS"},"data":[0,0,0,0,0,0,0,0,0,0,0,0,0,0,0,0,0,0,0,0,0,0,0,0,0,0,0,0,0,0,0,0,0,0,0,0,0,0,0,0,0,0,0,0,0,0,0,0,0,0,0,0,0,0,0,0,0,0,4.0618,4.062,0,4.0768,4.077,4.0772,4.073,4.0727,4.0724,4.0721,4.0872,4.0879,4.0886,0,0,0,0,0,0,0,0,0,0,0,0,0,4.0291,4.0298,4.0618,4.062,4.0622,4.0768,4.077,4.0772,4.073,4.0727,4.0723,4.0719,4.087,4.0878,4.0886,0,0,0,0,0,0,0,0,0,0,0,0,0,4.0437,4.03,4.0618,4.0619,4.062,4.0768,4.077,4.0773,4.0731,4.0726,4.0722,4.0718,4.0867,4.0877,4.0888,4.1043,0,0,4.0919,4.0924,0,0,0,0,0,0,0,0,4.0428,4.0449,4.0617,4.0619,4.0621,4.0726,4.0711,4.0863,4.0732,4.0689,4.0721,4.0715,4.0827,4.084,4.0879,4.105,4.1056,4.092,4.0926,4.0931,4.0934,0,0,0,0,0,0,0,4.0418,4.0442,4.0677,4.0619,4.0622,4.061,4.0626,4.0739,4.0782,4.0692,4.069,4.0708,4.0827,4.0869,4.0882,4.1059,4.092,4.0929,4.0935,4.0939,4.1364,4.1368,0,0,0,0,0,0,4.0407,4.0434,4.0673,4.0682,4.0511,4.062,4.0637,4.0697,4.078,4.0789,4.0712,4.0706,4.0853,4.087,4.0887,4.1074,4.0931,4.094,4.0946,4.1359,4.1365,4.137,0,0,0,0,0,0,4.04,4.0429,4.0667,4.0557,4.0587,4.063,4.0697,4.0702,4.0743,4.0795,4.0802,4.0747,4.085,4.0872,4.1004,4.1079,4.0945,4.0954,4.1353,4.136,4.1367,4.1449,0,0,0,0,0,0,4.0391,4.0427,4.0487,4.0559,4.0593,4.0783,4.0702,4.0708,4.0762,4.0755,4.083,4.0838,4.0849,4.0989,4.1015,4.109,4.0962,4.1346,4.1356,4.1365,4.144,4.1459,4.1475,0,0,0,0,0,4.038,4.0504,4.049,4.0519,4.0669,4.0787,4.0806,4.0817,4.0768,4.0828,4.0861,4.0835,4.1066,4.1003,4.1031,4.1111,4.1341,4.1353,4.1364,4.1433,4.1455,4.1474,0,0,0,0,0,0,4.0439,4.0513,4.0499,4.0651,4.0713,4.078,4.0857,4.0841,4.0918,4.0908,4.0917,4.0934,4.1069,4.1103,4.1032,4.1265,4.1196,4.1214,4.1239,4.1261,4.1278,4.1267,4.0971,0,0,0,0,0,4.047,4.056,4.062,4.0748,4.078,4.0813,4.0865,4.0867,4.0932,4.0958,4.1001,4.1064,4.115,4.1207,4.129,4.1444,4.146,4.1513,4.153,4.1544,4.156,4.1643,4.1668,4.1408,4.1408,4.1407,0,0,4.0534,4.0586,4.0642,4.0761,4.0809,4.0902,4.0835,4.0936,4.1005,4.0973,4.11,4.1134,4.1204,4.1348,4.1414,4.1381,4.1635,4.1559,4.157,4.1578,4.1658,4.1682,4.1704,4.1415,4.1414,4.1413,0,0,4.0699,4.0748,4.0859,4.0909,4.0984,4.1005,4.1032,4.1101,4.1122,4.125,4.1228,4.1309,4.1458,4.1509,4.1555,4.1737,4.1716,4.1764,4.1854,4.1936,4.1956,4.1975,4.204,4.2063,4.1779,4.1779,4.1779,0,4.077,4.091,4.0918,4.1022,4.1074,4.1049,4.1162,4.1209,4.1307,4.1343,4.1305,4.1491,4.1537,4.1692,4.1737,4.1774,4.1804,4.1756,4.1953,4.1971,4.1988,4.2051,4.2075,4.1784,4.1784,4.1783,4.1783,0,4.0992,4.1089,4.117,4.1266,4.1327,4.1434,4.1458,4.1519,4.1516,4.154,4.167,4.1724,4.1817,4.1854,4.1852,4.2009,4.1986,4.195,4.1881,4.2018,4.2077,4.2101,4.1792,4.179,4.1788,4.1787,0,0,4.1201,4.1299,4.1328,4.1371,4.1451,4.1526,4.1631,4.1722,4.1774,4.1841,4.1929,4.2056,4.2023,4.2075,4.2077,4.2149,4.229,4.2104,4.2106,4.2137,4.2466,4.2493,4.252,4.2276,4.228,4.2284,4.246,0,4.1373,4.1559,4.157,4.1739,4.1828,4.1805,4.1897,4.1955,4.1981,4.2059,4.2086,4.2176,4.2126,4.2157,4.2226,4.2258,4.2356,4.2245,4.2357,4.2361,4.2342,4.2551,4.258,4.2744,4.2483,4.2487,4.249,0,4.1599,4.1674,4.1852,4.1919,4.1956,4.2039,4.2123,4.2198,4.2263,4.2276,4.2334,4.2326,4.2433,4.236,4.2506,4.2431,4.2476,4.2499,4.2505,4.2517,4.2435,4.2569,4.2796,4.2821,4.2526,4.2523,4.252,0,4.1733,4.1878,4.2004,4.2041,4.2122,4.218,4.2216,4.2276,4.233,4.2403,4.2438,4.2522,4.2568,4.2633,4.2648,4.2593,4.2794,4.2722,4.2808,4.2807,4.2852,4.2849,4.3091,4.2881,4.288,4.288,4.2879,0,4.1925,4.2035,4.2065,4.2142,4.2264,4.2274,4.2394,4.2426,4.248,4.2562,4.2547,4.2624,4.2638,4.2718,4.273,4.2849,4.287,4.2883,4.2885,4.2885,4.2884,4.2916,4.2906,4.2886,4.2885,4.2884,4.2882,0,4.2096,4.2121,4.2256,4.2321,4.234,4.2427,4.2482,4.2555,4.2578,4.2682,4.2707,4.2743,4.2836,4.2857,4.2967,4.2975,4.3117,4.3107,4.3095,4.3095,4.3179,4.3171,4.3451,4.3488,4.3253,4.3255,4.3257,0,4.2217,4.2301,4.2375,4.2429,4.2468,4.2556,4.2611,4.2623,4.2681,4.276,4.2824,4.2915,4.2989,4.3139,4.3174,4.3258,4.3251,4.3343,4.3263,4.326,4.3252,4.3248,4.3256,4.3358,4.3361,4.3363,4.3365,0,4.2429,4.2437,4.2518,4.2603,4.2669,4.2736,4.28,4.2845,4.2865,4.2931,4.3026,4.3083,4.3196,4.3287,4.3371,4.3406,4.3389,4.3389,4.3413,4.3415,4.3405,4.3411,4.3137,4.3383,4.3381,4.338,4.3379,4.3378,4.258,4.2653,4.2717,4.2806,4.2856,4.2915,4.2988,4.3019,4.31,4.3193,4.3194,4.3298,4.336,4.3471,4.3511,4.3592,4.3563,4.3599,4.3608,4.3616,4.3624,4.3391,4.3607,4.3607,4.3606,4.3606,4.3605,0,4.2791,4.2831,4.2913,4.3003,4.3074,4.3051,4.3121,4.3181,4.3273,4.3332,4.3405,4.3513,4.3601,4.3643,4.3729,4.3785,4.378,4.3808,4.3804,4.3812,4.3645,4.3615,4.3811,4.3811,4.3811,4.3811,4.3811,4.3811,4.291,4.3033,4.3048,4.3195,4.3233,4.3336,4.3377,4.3432,4.3479,4.3602,4.3675,4.3701,4.3753,4.3843,4.3922,4.3931,4.3964,4.3996,4.4002,4.3845,4.3824,4.3804,4.3777,4.4003,4.4003,4.4163,4.4165,4.4166]}]]